Regional Weather Roundup
Issued by NWS

Home | Current Version | Previous Version | Text Only | Print | Product List | Glossary On
Versions: 1 2 3 4 5 6 7 8 9 10 11 12 13 14 15 16 17 18 19 20 21 22 23 24 25 26 27 28 29 30 31 32 33 34 35 36 37 38 39 40 41 42 43 44 45 46 47 48 49 50
400
ASUS43 KMPX 271610
RWRMN
WEATHER ROUNDUP FOR MINNESOTA
NATIONAL WEATHER SERVICE TWIN CITIES/CHANHASSEN MN
1100 AM CDT SAT MAY 27 2017


NOTE: "FAIR" INDICATES FEW OR NO CLOUDS BELOW 12,000 FEET WITH NO
SIGNIFICANT WEATHER AND/OR OBSTRUCTIONS TO VISIBILITY. N/A MEANS
CURRENT SKY AND/OR WEATHER CONDITIONS ARE NOT AVAILABLE.

MNZ060>063-068>070-271700-
   Twin Cities Metro

CITY           SKY/WX    TMP DP  RH WIND       PRES   REMARKS
TWIN CITIES    PTSUNNY   70  43  37 VRB5      29.90R
ST PAUL        SUNNY     70  45  40 NW9       29.90R
CRYSTAL        MOSUNNY   70  43  37 W8        29.88S
BLAINE         MOSUNNY   72  45  37 NW7       29.89R
LAKEVILLE      SUNNY     70  46  43 W6        29.91R
EDEN PRAIRIE   PTSUNNY   71  44  37 W8        29.90R
SOUTH ST PAUL  SUNNY     70  44  38 W9        29.90R
LAKE ELMO      FAIR      70  50  49 W3        29.90S
$$
MNZ001>005-007-008-013>017-022>024-027-028-271700-
   Northwest Minnesota

CITY           SKY/WX    TMP DP  RH WIND       PRES   REMARKS
BEMIDJI        SUNNY     70  40  33 SW13      29.81S
HALLOCK        MOSUNNY   70  43  37 W15       29.74S
ROSEAU         SUNNY     70  46  43 SW12      29.74F
WARROAD        SUNNY     68  46  45 SW7       29.75F
THIEF RVR FALL SUNNY     68  42  38 W16G22    29.79S
CROOKSTON      SUNNY     72  39  30 W15G23    29.78F
FOSSTON        SUNNY     66  41  39 W12G18    29.82S
DETROIT LAKES  SUNNY     68  45  42 SW6       29.85S
MOORHEAD       SUNNY     72  39  30 W13       29.83F
PARK RAPIDS    SUNNY     71  43  36 W14       29.84S
MAHNOMEN       FAIR      69  41  35 W15       29.82S
$$
MNZ006-009>011-018-025>026-271700-
   North Central Minnesota

CITY           SKY/WX    TMP DP  RH WIND       PRES   REMARKS
BAUDETTE       SUNNY     71  38  29 W12G20    29.75F
FLAG ISLAND    SUNNY     57  48  72 SE13      29.73S
INTL FALLS     PTSUNNY   69  42  37 SW10G18   29.78F
WASKISH        CLOUDY    66  45  45 SW10      29.80S
BIG FORK       PTSUNNY   70  43  37 SW10G18   29.81F
LONGVILLE      CLOUDY    66  48  52 SW6       29.84F
GRAND RAPIDS   CLOUDY    66  46  48 VRB5      29.86F
CRANE LAKE     MOSUNNY   66  41  39 W7        29.82S
ORR            CLOUDY    66  37  34 W8        29.78F
COOK           CLOUDY    64  46  52 SW7       29.83F
WALKER         FAIR      68  42  38 SW12      29.82F
$$
MNZ012-019>021-037-271700-
   Northeast Minnesota

CITY           SKY/WX    TMP DP  RH WIND       PRES   REMARKS
DULUTH         CLOUDY    67  45  45 NW10      29.84F
ELY            CLOUDY    63  46  55 SW7       29.83S
HIBBING        CLOUDY    62  43  49 CALM      29.84S
EVELETH        MOSUNNY   63  38  39 SW8       29.85F
DULUTH HARBOR  CLOUDY    68  48  49 W8        29.85S
TWO HARBORS    MOSUNNY   72  50  46 W9        29.82F
SILVER BAY     CLOUDY    68  43  40 W8        29.82S
GRAND MARAIS     N/A     48  44  86 SW10      29.81S
G MARAIS ARPRT MOSUNNY   64  41  42 SW8       29.84R
$$
MNZ029>031-032-039>041-046>048-054>057-064-271700-
   West Central Minnesota

CITY           SKY/WX    TMP DP  RH WIND       PRES   REMARKS
FERGUS FALLS   SUNNY     70  48  46 W6        29.83F
WHEATON        CLOUDY    72  39  30 W14       29.88S
MORRIS         MOSUNNY   70  48  46 SW9       29.87F
ALEXANDRIA     PTSUNNY   68  45  43 SW12      29.89F
ELBOW LAKE     FAIR      69  49  49 SW8       29.87F
WADENA         MOSUNNY   66  45  45 SW9       29.85F
GLENWOOD       CLOUDY    66  48  52 W9        29.90R
APPLETON       CLOUDY    68  48  49 SW8       29.89S
BENSON         CLOUDY    68  48  49 W5        29.91S
ORTONVILLE     PTSUNNY   70  45  40 SW8       29.88F
MADISON        CLOUDY    70  52  52 SW8       29.90S
WILLMAR        FAIR      66  48  52 W8        29.92R
$$
MNZ033>034-036-042>043-049>051-058-059-271700-
   Central Minnesota

CITY           SKY/WX    TMP DP  RH WIND       PRES   REMARKS
ST CLOUD       PTSUNNY   66  50  56 W8        29.88F
SAUK CENTRE    FAIR      66  48  52 SW8       29.89S
PAYNESVILLE    CLOUDY    65  47  52 SW7       29.91R
AITKIN         PTSUNNY   64  46  52 SW7       29.85S
PINE RIVER     CLOUDY    66  46  48 SW8       29.88F
BRAINERD       CLOUDY    65  46  50 SW7       29.87S
STAPLES        PTSUNNY   68  45  42 SW10      29.86F
LONG PRAIRIE   FAIR      66  46  48 S12       29.88F
LITTLE FALLS   CLOUDY    64  43  45 W6        29.88F
LITCHFIELD     PTSUNNY   66  50  55 SW3       29.91R
BUFFALO        CLOUDY    67  44  42 W5        29.90S
MAPLE LAKE     PTSUNNY   67  50  54 W3        29.90S
HUTCHINSON     CLOUDY    67  48  49 W7        29.91S
$$
MNZ037-044-045-052-053-271700-
   East Central Minnesota

CITY           SKY/WX    TMP DP  RH WIND       PRES   REMARKS
PRINCETON      CLOUDY    66  48  52 W7        29.88F
MORA           PTSUNNY   64  46  52 NW6       29.88F
CAMBRIDGE      CLOUDY    70  50  49 W6        29.87S
RUSH CITY      CLOUDY    68  47  47 NW7       29.87F
MOOSE LAKE     CLOUDY    64  43  45 W6        29.84F
HINCKLEY       FAIR      66  46  48 W6        29.86F
CLOQUET        MOSUNNY   66  39  37 SW9       29.85F
MCGREGOR       CLOUDY    68  45  42 W7        29.87S
$$
MNZ071>073-080-081-089-090-097-098-271700-
   Southwest Minnesota

CITY           SKY/WX    TMP DP  RH WIND       PRES   REMARKS
MONTEVIDEO     CLOUDY    66  54  63 W7        29.91R
CANBY          CLOUDY    65  48  55 SW7       29.92S
MARSHALL       CLOUDY    65  48  54 SW12      29.92R
REDWOOD FALLS  CLOUDY    65  47  52 SW6       29.91S
OLIVIA         CLOUDY    68  48  49 SW7       29.90S
PIPESTONE      CLOUDY    61  46  59 W6        29.94S
WINDOM         CLOUDY    64  48  55 S6        29.93S
WORTHINGTON    CLOUDY    62  51  67 S14       29.94F
JACKSON        DRIZZLE   61  54  77 S3        29.95F
TRACY          CLOUDY    66  49  55 W7        29.92S
SLAYTON        CLOUDY    61  49  64 W6        29.94S
$$
MNZ065>067-074>077-082>085-091>093-271700-
   South Central Minnesota

CITY           SKY/WX    TMP DP  RH WIND       PRES   REMARKS
MANKATO          N/A     67  46  47 VRB3      29.94R
NEW ULM        LGT RAIN  64  48  55 SW6       29.92S
ST JAMES       CLOUDY    66  45  45 CALM      29.94S
FAIRMONT       CLOUDY    68  43  40 N7        29.94S
GLENCOE        CLOUDY    69  48  47 W5        29.90S
FARIBAULT      MOSUNNY   70  46  43 W3        29.93R
OWATONNA       MOSUNNY   70  43  37 N7        29.92S
WASECA         PTSUNNY   68  45  42 NW9       29.94S
ALBERT LEA     CLOUDY    70  45  40 CALM      29.93R
$$
MNZ078>079-086>088-094>096-271700-
   Southeast Minnesota

CITY           SKY/WX    TMP DP  RH WIND       PRES   REMARKS
ROCHESTER      SUNNY     69  49  48 NW9       29.92F
RED WING       SUNNY     70  46  43 S5        29.89S
STANTON        SUNNY     69  45  41 NW9       29.90R
DODGE CENTER   SUNNY     68  45  42 NW5       29.92S
WINONA         SUNNY     70  55  60 N6        29.90S
AUSTIN         CLOUDY    66  48  52 NW7       29.92S
PRESTON        SUNNY     69  49  49 W6        29.92S
$$
ABBREVIATIONS USED IN REMARKS
   TC - TEMPERATURES IN CELSIUS
  WCI - WIND CHILL INDEX
   HX - HEAT INDEX
  VSB - VISIBILITY
$$




USA.gov is the U.S. government's official web portal to all federal, state and local government web resources and services.